FW5345 Weather Reports


time (UTC)temp
C
wind
direction
speed
KPH
gust
KPH
rain 1hr
cm
rain 24hr
cm
rain mn
cm
humidity
%
barometer
mb
20260510141533 10 166 4.8 8.0 0.00 0.00 0.00 76 1016.7
20260510134536 8 141 4.8 8.0 0.00 0.00 0.00 81 1016.8
20260510133039 8 166 3.2 6.4 0.00 0.00 0.00 80 1016.8
20260510131612 8 158 1.6 4.8 0.00 0.00 0.00 79 1016.6
20260510124535 7 182 3.2 6.4 0.00 0.00 0.00 82 1016.5
20260510123032 7 154 4.8 8.0 0.00 0.00 0.00 82 1016.8
20260510120035 6 165 4.8 9.7 0.00 0.00 0.00 82 1016.6
20260510114536 7 157 3.2 6.4 0.00 0.00 0.00 80 1016.8
20260510113036 7 157 4.8 6.4 0.00 0.00 0.00 79 1016.6
20260510111533 7 160 4.8 6.4 0.00 0.00 0.00 79 1016.5
20260510110150 7 168 4.8 9.7 0.00 0.00 0.00 80 1016.4
20260510104537 7 155 4.8 8.0 0.00 0.00 0.00 78 1016.7
20260510103108 8 157 4.8 8.0 0.00 0.00 0.00 77 1016.9
20260510101531 8 159 4.8 8.0 0.00 0.00 0.00 77 1016.7
20260510100142 8 151 6.4 8.0 0.00 0.00 0.00 78 1016.6
20260510094536 8 157 4.8 8.0 0.00 0.00 0.00 76 1016.6
20260510093035 8 157 4.8 6.4 0.00 0.00 0.00 76 1016.6
20260510091535 8 157 4.8 6.4 0.00 0.00 0.00 74 1016.9
20260510090151 9 157 4.8 6.4 0.00 0.00 0.00 74 1017.0
20260510084532 9 157 4.8 6.4 0.00 0.00 0.00 73 1017.1
20260510083035 10 156 4.8 9.7 0.00 0.00 0.00 74 1017.2
20260510081530 9 154 6.4 9.7 0.00 0.00 0.00 77 1017.3
20260510080034 9 156 6.4 8.0 0.00 0.00 0.00 78 1017.4
20260510070030 10 157 4.8 6.4 0.00 0.00 0.00 75 1017.5
20260510061534 11 141 4.8 9.7 0.00 0.00 0.00 71 1017.4
20260510060032 11 160 3.2 6.4 0.00 0.00 0.00 73 1017.4
20260510054534 11 157 4.8 8.0 0.00 0.00 0.00 73 1017.3
20260510053036 12 162 4.8 6.4 0.00 0.00 0.00 71 1017.4
20260510051534 12 161 4.8 6.4 0.00 0.00 0.00 71 1017.2
20260510050111 12 157 4.8 8.0 0.00 0.00 0.00 71 1017.1
20260510044535 13 140 6.4 8.0 0.00 0.00 0.00 67 1017.1
20260510043034 14 157 4.8 6.4 0.00 0.00 0.00 68 1017.1
20260510041535 15 142 6.4 8.0 0.00 0.00 0.00 67 1017.0
20260510040036 16 137 4.8 9.7 0.00 0.00 0.00 63 1016.9
20260510034533 17 157 4.8 8.0 0.00 0.00 0.00 62 1016.7
20260510033143 17 162 4.8 6.4 0.00 0.00 0.00 62 1016.6
20260510031532 18 168 3.2 6.4 0.00 0.00 0.00 57 1016.6
20260510030141 20 291 0.0 1.6 0.00 0.00 0.00 53 1016.6
20260510024537 20 292 0.0 0.0 0.00 0.00 0.00 48 1016.6
20260510023033 21 292 0.0 0.0 0.00 0.00 0.00 42 1016.7
20260510021535 21 292 0.0 0.0 0.00 0.00 0.00 42 1016.6
20260510020145 22 292 0.0 0.0 0.00 0.00 0.00 38 1016.6
20260510014645 22 292 1.6 3.2 0.00 0.00 0.00 34 1016.9
20260510013143 22 292 0.0 3.2 0.00 0.00 0.00 34 1017.0
20260510011531 22 293 1.6 9.7 0.00 0.00 0.00 34 1017.1
20260510010033 22 301 4.8 8.0 0.00 0.00 0.00 34 1017.1
20260510004535 23 298 4.8 9.7 0.00 0.00 0.00 34 1017.1
20260510003034 23 311 4.8 11.3 0.00 0.00 0.00 36 1017.2
20260510001535 23 310 6.4 12.9 0.00 0.00 0.00 38 1017.2
20260510000036 23 317 6.4 12.9 0.00 0.00 0.00 38 1017.3
20260509234534 23 319 8.0 14.5 0.00 0.00 0.00 39 1017.5
20260509233035 23 337 8.0 14.5 0.00 0.00 0.00 39 1017.6
20260509231536 22 300 6.4 16.1 0.00 0.00 0.00 41 1018.1
20260509224531 22 329 6.4 14.5 0.00 0.00 0.00 40 1018.4
20260509223031 22 338 4.8 14.5 0.00 0.00 0.00 41 1018.7
20260509221642 22 327 6.4 16.1 0.00 0.00 0.00 42 1018.9
20260509220036 21 305 8.0 17.7 0.00 0.00 0.00 44 1019.0
20260509214533 21 326 8.0 16.1 0.00 0.00 0.00 46 1019.1
20260509213035 21 322 6.4 17.7 0.00 0.00 0.00 48 1019.3
20260509211536 21 325 4.8 11.3 0.00 0.00 0.00 49 1019.5
20260509210034 21 329 8.0 17.7 0.00 0.00 0.00 49 1019.7
20260509203151 20 333 6.4 16.1 0.00 0.00 0.00 52 1019.9
20260509201533 20 329 8.0 14.5 0.00 0.00 0.00 53 1020.1
20260509200035 19 341 4.8 12.9 0.00 0.00 0.00 54 1020.3
20260509194642 18 339 6.4 16.1 0.00 0.00 0.00 55 1020.5
20260509193032 18 2 8.0 14.5 0.00 0.00 0.00 54 1020.6
20260509191534 18 346 6.4 12.9 0.00 0.00 0.00 54 1020.7
20260509190035 18 315 6.4 14.5 0.00 0.00 0.00 55 1020.9
20260509183119 17 358 6.4 12.9 0.00 0.00 0.00 56 1021.3
20260509180028 17 16 6.4 11.3 0.00 0.00 0.00 55 1021.3
20260509174535 16 339 4.8 12.9 0.00 0.00 0.00 53 1021.3
20260509173036 16 323 4.8 12.9 0.00 0.00 0.00 57 1021.4
20260509171535 15 311 6.4 12.9 0.00 0.00 0.00 57 1021.5
20260509170037 15 353 4.8 11.3 0.00 0.00 0.00 57 1021.6
20260509164535 14 326 4.8 9.7 0.00 0.00 0.00 55 1021.7
20260509161642 13 339 3.2 8.0 0.00 0.00 0.00 59 1021.8
20260509160032 12 341 3.2 8.0 0.00 0.00 0.00 62 1021.8
20260509154536 11 348 3.2 6.4 0.00 0.00 0.00 65 1021.9
20260509153033 11 347 3.2 4.8 0.00 0.00 0.00 66 1021.8
20260509150035 10 136 1.6 4.8 0.00 0.00 0.00 69 1021.6
20260509144642 9 112 3.2 6.4 0.00 0.00 0.00 72 1021.6
20260509143032 8 129 3.2 6.4 0.00 0.00 0.00 75 1021.6